QPF
0.02 0.02 0.02 0.01 0.01 0.01 0.01 0.02 0.03 0.04 0.04 0.03 0.02 0.02 0.02 0.02 0.03 0.03 0.03 0.03 0.03 0.03 0.03 0.03 0.04 0.06 0.07 0.08 0.08 0.07 0.06 0.04 0.03 0.02 0.03 0.03 0.05 0.08
0.02 0.02 0.01 0.01 0.01 0.01 0.02 0.02 0.03 0.03 0.03 0.03 0.03 0.02 0.02 0.02 0.03 0.03 0.03 0.04 0.03 0.03 0.03 0.03 0.03 0.03 0.04 0.04 0.04 0.04 0.04 0.04 0.03 0.03 0.03 0.02 0.02 0.04
0.04 0.02 0.02 0.01 0.01 0.01 0.01 0.02 0.03 0.04 0.04 0.02 0.02 0.02 0.03 0.03 0.03 0.03 0.04 0.04 0.04 0.04 0.03 0.04 0.04 0.03 0.03 0.03 0.03 0.03 0.03 0.03 0.03 0.03 0.04 0.04 0.03 0.02
0.05 0.03 0.02 0.02 0.01 0.01 0.01 0.01 0.02 0.04 0.05 0.04 0.02 0.02 0.03 0.03 0.03 0.03 0.04 0.04 0.04 0.04 0.04 0.04 0.03 0.04 0.03 0.03 0.03 0.03 0.03 0.03 0.03 0.03 0.03 0.03 0.03 0.03
0.05 0.04 0.03 0.02 0.02 0.01 0.01 0.01 0.01 0.02 0.04 0.05 0.04 0.03 0.03 0.04 0.04 0.04 0.04 0.04 0.04 0.04 0.04 0.04 0.03 0.03 0.04 0.03 0.02 0.02 0.03 0.03 0.03 0.03 0.04 0.03 0.03 0.03
0.06 0.04 0.03 0.02 0.02 0.01 0.02 0.02 0.02 0.02 0.02 0.03 0.04 0.04 0.04 0.04 0.05 0.05 0.04 0.03 0.03 0.04 0.04 0.03 0.03 0.03 0.03 0.02 0.02 0.02 0.03 0.03 0.03 0.04 0.04 0.04 0.03 0.03
0.05 0.05 0.04 0.02 0.02 0.02 0.03 0.03 0.04 0.04 0.04 0.04 0.04 0.04 0.04 0.04 0.04 0.04 0.05 0.04 0.04 0.03 0.03 0.03 0.03 0.03 0.03 0.02 0.02 0.02 0.02 0.02 0.03 0.03 0.03 0.03 0.03 0.03
0.03 0.03 0.03 0.03 0.02 0.02 0.02 0.03 0.04 0.05 0.05 0.04 0.04 0.04 0.03 0.03 0.03 0.03 0.04 0.05 0.05 0.04 0.02 0.02 0.02 0.02 0.02 0.02 0.02 0.02 0.02 0.02 0.03 0.03 0.02 0.02 0.02 0.03
0.02 0.03 0.04 0.03 0.03 0.03 0.03 0.03 0.02 0.03 0.03 0.04 0.04 0.03 0.03 0.03 0.03 0.04 0.03 0.03 0.04 0.04 0.03 0.03 0.03 0.03 0.03 0.03 0.03 0.02 0.02 0.02 0.02 0.02 0.02 0.02 0.02 0.02
0.02 0.02 0.02 0.03 0.04 0.04 0.04 0.04 0.03 0.02 0.02 0.02 0.03 0.03 0.03 0.04 0.05 0.06 0.06 0.05 0.04 0.04 0.04 0.04 0.04 0.03 0.03 0.02 0.02 0.02 0.03 0.03 0.02 0.02 0.02 0.02 0.02 0.02
0.02 0.02 0.01 0.01 0.03 0.04 0.05 0.06 0.04 0.03 0.03 0.03 0.03 0.04 0.04 0.05 0.07 0.08 0.09 0.09 0.07 0.04 0.04 0.04 0.04 0.04 0.03 0.03 0.03 0.03 0.03 0.03 0.03 0.03 0.02 0.02 0.02 0.02
0.03 0.02 0.02 0.02 0.03 0.04 0.04 0.06 0.06 0.04 0.04 0.05 0.04 0.03 0.03 0.04 0.06 0.06 0.06 0.08 0.07 0.05 0.04 0.04 0.04 0.05 0.05 0.04 0.03 0.03 0.03 0.04 0.04 0.03 0.03 0.03 0.02 0.02
0.03 0.02 0.02 0.02 0.03 0.04 0.04 0.04 0.04 0.05 0.05 0.06 0.06 0.06 0.05 0.05 0.05 0.04 0.05 0.06 0.07 0.05 0.03 0.04 0.04 0.04 0.04 0.04 0.04 0.04 0.03 0.03 0.04 0.03 0.03 0.03 0.02 0.02
0.04 0.03 0.02 0.03 0.03 0.04 0.04 0.04 0.05 0.05 0.05 0.06 0.07 0.07 0.07 0.06 0.05 0.04 0.05 0.06 0.06 0.05 0.04 0.04 0.04 0.04 0.03 0.03 0.04 0.04 0.04 0.03 0.04 0.04 0.03 0.03 0.03 0.02
0.04 0.04 0.04 0.04 0.04 0.03 0.04 0.05 0.05 0.05 0.05 0.05 0.05 0.05 0.05 0.05 0.06 0.06 0.05 0.06 0.07 0.06 0.06 0.05 0.05 0.04 0.04 0.04 0.03 0.03 0.04 0.04 0.04 0.05 0.04 0.03 0.03 0.03
0.04 0.03 0.03 0.03 0.04 0.04 0.04 0.04 0.05 0.06 0.06 0.05 0.04 0.04 0.05 0.06 0.06 0.06 0.06 0.07 0.09 0.08 0.06 0.05 0.05 0.05 0.05 0.04 0.03 0.03 0.03 0.04 0.04 0.04 0.04 0.04 0.03 0.02
0.05 0.05 0.04 0.04 0.04 0.05 0.05 0.05 0.05 0.06 0.06 0.06 0.06 0.05 0.05 0.06 0.07 0.07 0.07 0.08 0.09 0.09 0.07 0.05 0.05 0.05 0.05 0.04 0.04 0.04 0.04 0.04 0.04 0.04 0.04 0.04 0.04 0.03
0.06 0.06 0.05 0.05 0.05 0.05 0.05 0.06 0.06 0.07 0.06 0.06 0.07 0.07 0.07 0.07 0.07 0.07 0.08 0.08 0.08 0.08 0.06 0.05 0.05 0.06 0.06 0.05 0.04 0.04 0.04 0.04 0.04 0.04 0.04 0.04 0.03 0.03
0.06 0.06 0.05 0.05 0.05 0.06 0.06 0.06 0.07 0.07 0.07 0.08 0.08 0.08 0.08 0.08 0.08 0.08 0.09 0.09 0.08 0.08 0.06 0.05 0.05 0.06 0.06 0.05 0.04 0.03 0.03 0.03 0.04 0.04 0.04 0.03 0.03 0.03
0.04 0.05 0.06 0.06 0.05 0.05 0.06 0.06 0.08 0.09 0.09 0.09 0.08 0.08 0.09 0.09 0.09 0.09 0.09 0.08 0.07 0.07 0.07 0.05 0.05 0.05 0.04 0.03 0.02 0.03 0.03 0.03 0.03 0.03 0.04 0.04 0.04 0.03
0.04 0.05 0.06 0.06 0.06 0.05 0.06 0.06 0.07 0.08 0.09 0.10 0.10 0.09 0.09 0.09 0.09 0.09 0.08 0.08 0.07 0.07 0.07 0.06 0.04 0.04 0.03 0.03 0.03 0.03 0.04 0.04 0.03 0.03 0.03 0.04 0.04 0.03
0.04 0.05 0.06 0.07 0.07 0.06 0.06 0.06 0.07 0.07 0.08 0.10 0.10 0.10 0.10 0.09 0.09 0.09 0.08 0.07 0.06 0.06 0.06 0.05 0.04 0.04 0.04 0.04 0.03 0.03 0.03 0.05 0.05 0.05 0.04 0.03 0.03 0.02
0.04 0.04 0.04 0.05 0.06 0.06 0.06 0.06 0.07 0.07 0.07 0.08 0.09 0.10 0.11 0.10 0.09 0.08 0.07 0.06 0.06 0.06 0.06 0.06 0.05 0.05 0.05 0.04 0.04 0.03 0.03 0.04 0.05 0.05 0.05 0.04 0.03 0.02
MSLP
1027.51 1027.37 1027.20 1026.98 1026.70 1026.33 1025.87 1025.34 1024.77 1024.18 1023.60 1023.06 1022.57 1022.12 1021.70 1021.28 1020.83 1020.34 1019.78 1019.16 1018.48 1017.77 1017.06 1016.35 1015.68 1015.03 1014.42 1013.84 1013.25 1012.66 1012.05 1011.42 1010.79 1010.18 1009.61 1009.10 1008.67 1008.35
1027.02 1026.89 1026.74 1026.55 1026.30 1025.96 1025.55 1025.07 1024.54 1023.99 1023.44 1022.93 1022.46 1022.03 1021.62 1021.20 1020.74 1020.23 1019.65 1019.00 1018.29 1017.55 1016.80 1016.06 1015.36 1014.70 1014.08 1013.49 1012.91 1012.33 1011.72 1011.10 1010.45 1009.80 1009.17 1008.57 1008.04 1007.59
1026.39 1026.26 1026.12 1025.95 1025.73 1025.43 1025.07 1024.63 1024.15 1023.66 1023.16 1022.70 1022.26 1021.85 1021.45 1021.03 1020.57 1020.05 1019.45 1018.77 1018.03 1017.25 1016.46 1015.70 1014.96 1014.28 1013.65 1013.05 1012.47 1011.89 1011.29 1010.66 1009.99 1009.31 1008.62 1007.94 1007.31 1006.76
1025.68 1025.55 1025.41 1025.26 1025.06 1024.80 1024.47 1024.08 1023.65 1023.20 1022.76 1022.33 1021.93 1021.55 1021.17 1020.76 1020.31 1019.78 1019.17 1018.48 1017.71 1016.91 1016.10 1015.30 1014.54 1013.84 1013.18 1012.57 1011.98 1011.39 1010.78 1010.13 1009.45 1008.72 1007.98 1007.24 1006.53 1005.88
1024.94 1024.80 1024.67 1024.53 1024.35 1024.11 1023.81 1023.45 1023.06 1022.65 1022.24 1021.84 1021.47 1021.12 1020.76 1020.38 1019.94 1019.42 1018.82 1018.13 1017.37 1016.56 1015.73 1014.92 1014.14 1013.40 1012.72 1012.08 1011.47 1010.85 1010.22 1009.55 1008.83 1008.07 1007.28 1006.49 1005.72 1005.00
1024.18 1024.06 1023.94 1023.81 1023.63 1023.41 1023.12 1022.78 1022.40 1022.01 1021.62 1021.25 1020.90 1020.58 1020.25 1019.89 1019.48 1018.99 1018.41 1017.75 1017.00 1016.21 1015.38 1014.56 1013.76 1013.00 1012.29 1011.62 1010.96 1010.30 1009.63 1008.92 1008.16 1007.36 1006.54 1005.70 1004.90 1004.15
1023.44 1023.33 1023.22 1023.09 1022.92 1022.70 1022.41 1022.07 1021.69 1021.30 1020.92 1020.57 1020.25 1019.94 1019.65 1019.32 1018.95 1018.51 1017.98 1017.35 1016.64 1015.87 1015.06 1014.24 1013.43 1012.65 1011.89 1011.17 1010.46 1009.75 1009.01 1008.25 1007.45 1006.61 1005.75 1004.90 1004.08 1003.33
1022.69 1022.58 1022.49 1022.37 1022.19 1021.96 1021.66 1021.32 1020.94 1020.55 1020.18 1019.84 1019.54 1019.26 1019.01 1018.73 1018.41 1018.02 1017.54 1016.97 1016.30 1015.57 1014.78 1013.96 1013.14 1012.32 1011.52 1010.74 1009.96 1009.18 1008.38 1007.55 1006.69 1005.81 1004.93 1004.06 1003.25 1002.52
1021.88 1021.79 1021.70 1021.58 1021.40 1021.16 1020.86 1020.50 1020.12 1019.74 1019.39 1019.07 1018.80 1018.58 1018.36 1018.14 1017.88 1017.54 1017.13 1016.61 1015.99 1015.28 1014.51 1013.70 1012.86 1012.01 1011.16 1010.31 1009.46 1008.60 1007.72 1006.82 1005.90 1004.97 1004.06 1003.19 1002.39 1001.70
1020.98 1020.89 1020.80 1020.67 1020.49 1020.25 1019.95 1019.60 1019.24 1018.89 1018.56 1018.29 1018.08 1017.90 1017.75 1017.58 1017.38 1017.10 1016.74 1016.27 1015.69 1015.01 1014.26 1013.44 1012.58 1011.70 1010.81 1009.90 1008.97 1008.03 1007.06 1006.08 1005.10 1004.12 1003.17 1002.29 1001.50 1000.85
1019.96 1019.86 1019.76 1019.63 1019.45 1019.21 1018.92 1018.60 1018.28 1017.98 1017.72 1017.51 1017.36 1017.26 1017.17 1017.07 1016.92 1016.70 1016.37 1015.94 1015.38 1014.73 1013.98 1013.17 1012.30 1011.39 1010.46 1009.49 1008.50 1007.48 1006.44 1005.38 1004.32 1003.28 1002.29 1001.38 1000.59 999.95
1018.83 1018.72 1018.60 1018.46 1018.28 1018.06 1017.80 1017.53 1017.27 1017.04 1016.86 1016.75 1016.68 1016.65 1016.63 1016.59 1016.49 1016.30 1016.01 1015.59 1015.06 1014.42 1013.68 1012.87 1012.00 1011.08 1010.12 1009.11 1008.07 1006.99 1005.88 1004.74 1003.61 1002.49 1001.44 1000.48 999.67 999.02
1017.65 1017.51 1017.38 1017.23 1017.05 1016.86 1016.65 1016.44 1016.26 1016.12 1016.04 1016.02 1016.04 1016.08 1016.13 1016.13 1016.06 1015.90 1015.62 1015.22 1014.70 1014.06 1013.34 1012.54 1011.68 1010.76 1009.79 1008.78 1007.70 1006.58 1005.41 1004.20 1002.98 1001.79 1000.65 999.63 998.75 998.07
1016.50 1016.34 1016.18 1016.03 1015.87 1015.70 1015.54 1015.41 1015.31 1015.27 1015.29 1015.35 1015.45 1015.57 1015.66 1015.69 1015.64 1015.48 1015.20 1014.80 1014.28 1013.66 1012.95 1012.17 1011.33 1010.44 1009.49 1008.47 1007.39 1006.24 1005.02 1003.74 1002.45 1001.17 999.94 998.82 997.87 997.11
1015.47 1015.29 1015.12 1014.97 1014.82 1014.70 1014.59 1014.52 1014.51 1014.55 1014.65 1014.79 1014.95 1015.10 1015.22 1015.26 1015.21 1015.04 1014.75 1014.34 1013.82 1013.20 1012.52 1011.76 1010.96 1010.10 1009.18 1008.18 1007.10 1005.92 1004.66 1003.34 1001.97 1000.60 999.28 998.07 997.02 996.18
1014.66 1014.46 1014.30 1014.15 1014.02 1013.92 1013.86 1013.85 1013.90 1014.00 1014.16 1014.35 1014.54 1014.71 1014.83 1014.86 1014.79 1014.59 1014.28 1013.85 1013.32 1012.72 1012.04 1011.32 1010.54 1009.71 1008.82 1007.84 1006.76 1005.57 1004.28 1002.90 1001.46 1000.02 998.62 997.32 996.19 995.27
1014.10 1013.91 1013.75 1013.61 1013.50 1013.43 1013.40 1013.43 1013.52 1013.66 1013.84 1014.04 1014.24 1014.40 1014.49 1014.49 1014.38 1014.14 1013.80 1013.35 1012.81 1012.20 1011.54 1010.82 1010.07 1009.25 1008.36 1007.38 1006.29 1005.08 1003.76 1002.34 1000.85 999.35 997.89 996.54 995.35 994.39
1013.80 1013.63 1013.48 1013.36 1013.26 1013.21 1013.20 1013.24 1013.34 1013.48 1013.66 1013.85 1014.02 1014.14 1014.19 1014.14 1013.99 1013.71 1013.33 1012.85 1012.29 1011.67 1010.99 1010.27 1009.50 1008.66 1007.75 1006.74 1005.61 1004.37 1003.00 1001.54 1000.03 998.50 997.03 995.68 994.50 993.55
1013.71 1013.56 1013.43 1013.31 1013.23 1013.18 1013.18 1013.21 1013.30 1013.42 1013.57 1013.71 1013.84 1013.91 1013.91 1013.81 1013.61 1013.29 1012.87 1012.36 1011.77 1011.11 1010.40 1009.64 1008.82 1007.92 1006.94 1005.86 1004.67 1003.36 1001.95 1000.46 998.94 997.44 996.01 994.71 993.61 992.74
1013.74 1013.61 1013.49 1013.38 1013.30 1013.25 1013.23 1013.24 1013.30 1013.38 1013.47 1013.57 1013.63 1013.65 1013.59 1013.45 1013.20 1012.85 1012.39 1011.85 1011.22 1010.51 1009.74 1008.90 1007.99 1006.99 1005.91 1004.72 1003.43 1002.04 1000.58 999.08 997.58 996.14 994.80 993.64 992.69 991.99
1013.81 1013.68 1013.57 1013.46 1013.37 1013.29 1013.24 1013.22 1013.23 1013.25 1013.29 1013.32 1013.33 1013.29 1013.19 1013.00 1012.72 1012.34 1011.86 1011.28 1010.60 1009.84 1008.98 1008.04 1007.01 1005.88 1004.65 1003.33 1001.92 1000.45 998.94 997.44 995.99 994.65 993.47 992.50 991.78 991.31
1013.83 1013.70 1013.58 1013.45 1013.34 1013.23 1013.14 1013.06 1013.01 1012.97 1012.94 1012.91 1012.86 1012.77 1012.63 1012.41 1012.11 1011.71 1011.21 1010.60 1009.88 1009.05 1008.10 1007.05 1005.87 1004.59 1003.21 1001.74 1000.22 998.66 997.11 995.63 994.26 993.07 992.08 991.36 990.91 990.74
1013.77 1013.62 1013.47 1013.31 1013.16 1013.00 1012.85 1012.71 1012.59 1012.48 1012.39 1012.29 1012.19 1012.05 1011.88 1011.64 1011.33 1010.92 1010.40 1009.77 1009.01 1008.11 1007.08 1005.91 1004.60 1003.18 1001.65 1000.04 998.41 996.78 995.22 993.79 992.53 991.50 990.75 990.30 990.15 990.31
Thickness
5445 5448 5450 5453 5455 5458 5461 5464 5468 5475 5486 5491 5493 5498 5501 5505 5510 5513 5517 5521 5525 5529 5532 5535 5538 5541 5544 5546 5548 5550 5552 5552 5554 5555 5556 5556 5556 5557
5431 5434 5437 5440 5442 5444 5448 5451 5454 5460 5468 5478 5480 5484 5487 5491 5496 5500 5504 5508 5512 5516 5520 5523 5526 5529 5531 5534 5536 5538 5540 5541 5543 5544 5546 5546 5547 5547
5417 5420 5424 5426 5428 5431 5434 5437 5440 5444 5452 5462 5465 5469 5472 5476 5482 5486 5490 5494 5499 5503 5507 5511 5514 5517 5519 5522 5524 5527 5529 5530 5532 5534 5535 5536 5537 5538
5402 5406 5410 5413 5415 5418 5420 5424 5428 5431 5436 5443 5450 5454 5458 5462 5467 5472 5476 5480 5485 5489 5493 5497 5500 5504 5507 5510 5512 5514 5517 5518 5521 5523 5525 5526 5527 5527
5389 5393 5397 5399 5402 5405 5408 5411 5415 5419 5423 5428 5435 5439 5444 5448 5452 5457 5461 5465 5470 5475 5479 5483 5487 5490 5493 5497 5499 5502 5505 5507 5509 5511 5512 5514 5515 5516
5376 5381 5385 5387 5390 5393 5396 5399 5402 5405 5409 5414 5420 5425 5430 5434 5438 5443 5447 5451 5456 5460 5464 5469 5473 5476 5480 5484 5488 5490 5492 5494 5497 5499 5501 5503 5504 5505
5365 5369 5373 5376 5379 5382 5386 5388 5391 5394 5397 5401 5407 5411 5416 5420 5425 5429 5433 5437 5441 5445 5450 5454 5458 5463 5466 5469 5473 5477 5479 5482 5484 5487 5489 5490 5492 5493
5354 5358 5362 5364 5368 5371 5374 5378 5381 5384 5387 5390 5394 5399 5405 5409 5412 5415 5419 5423 5428 5434 5435 5440 5443 5448 5453 5456 5460 5464 5467 5469 5472 5474 5476 5478 5480 5481
5342 5346 5350 5354 5357 5359 5362 5366 5370 5374 5378 5382 5385 5390 5394 5399 5400 5403 5407 5412 5418 5422 5422 5427 5430 5434 5439 5443 5447 5451 5454 5457 5459 5461 5464 5466 5467 5469
5330 5335 5339 5343 5345 5348 5351 5355 5359 5363 5368 5371 5377 5381 5384 5387 5390 5394 5397 5399 5404 5408 5411 5414 5417 5421 5427 5431 5435 5438 5441 5444 5447 5449 5450 5453 5455 5456
5320 5324 5328 5332 5336 5338 5342 5345 5350 5353 5357 5362 5366 5370 5374 5377 5380 5381 5384 5387 5392 5397 5399 5403 5407 5409 5413 5418 5422 5426 5429 5432 5434 5436 5438 5440 5441 5443
5311 5315 5319 5322 5326 5329 5332 5336 5340 5344 5347 5351 5355 5359 5363 5366 5370 5374 5377 5379 5382 5386 5390 5392 5395 5396 5400 5406 5409 5413 5416 5419 5421 5423 5425 5427 5428 5429
5301 5306 5309 5312 5317 5320 5324 5327 5331 5335 5337 5341 5345 5349 5353 5357 5361 5364 5368 5371 5374 5378 5381 5382 5383 5384 5388 5393 5397 5400 5403 5406 5407 5409 5412 5414 5415 5417
5292 5296 5300 5304 5307 5311 5314 5319 5322 5325 5328 5331 5335 5340 5344 5348 5352 5355 5358 5361 5365 5369 5372 5373 5375 5376 5378 5381 5384 5388 5390 5392 5394 5396 5398 5401 5402 5404
5282 5287 5291 5295 5298 5301 5306 5309 5313 5315 5319 5323 5327 5332 5335 5339 5342 5345 5347 5350 5354 5357 5361 5363 5367 5369 5370 5372 5374 5375 5376 5379 5381 5384 5386 5388 5390 5391
5273 5278 5282 5285 5288 5292 5296 5299 5303 5307 5310 5315 5319 5321 5325 5328 5332 5336 5338 5341 5344 5347 5349 5353 5356 5359 5360 5362 5364 5365 5366 5367 5370 5372 5374 5376 5377 5379
5265 5268 5271 5274 5278 5283 5286 5290 5294 5298 5302 5306 5309 5312 5316 5319 5323 5327 5329 5332 5335 5338 5339 5341 5344 5346 5349 5352 5353 5355 5355 5356 5358 5360 5362 5363 5365 5367
5256 5258 5261 5264 5268 5273 5277 5282 5285 5289 5293 5297 5300 5304 5307 5311 5314 5318 5320 5323 5326 5328 5330 5332 5333 5334 5336 5337 5342 5344 5345 5346 5347 5348 5350 5352 5354 5356
5244 5247 5250 5254 5258 5263 5267 5271 5276 5281 5284 5288 5292 5296 5299 5302 5305 5309 5312 5314 5316 5319 5321 5323 5325 5327 5329 5331 5332 5334 5335 5336 5337 5337 5339 5341 5343 5346
5233 5236 5240 5245 5249 5254 5258 5262 5267 5272 5277 5281 5285 5288 5291 5294 5297 5300 5303 5306 5308 5309 5311 5314 5316 5319 5323 5324 5323 5324 5326 5327 5328 5328 5328 5330 5332 5335
5224 5227 5231 5235 5240 5244 5249 5254 5259 5264 5268 5273 5277 5281 5284 5287 5290 5293 5295 5298 5301 5302 5303 5305 5308 5310 5311 5312 5313 5314 5315 5317 5319 5320 5320 5320 5321 5322
5215 5219 5223 5227 5231 5236 5241 5246 5251 5256 5261 5265 5270 5274 5277 5281 5284 5287 5289 5291 5293 5294 5295 5296 5298 5300 5302 5304 5305 5305 5305 5307 5309 5310 5312 5314 5314 5314
5207 5211 5215 5220 5224 5229 5234 5238 5243 5248 5253 5257 5262 5266 5269 5273 5277 5280 5282 5284 5285 5286 5287 5288 5289 5291 5292 5294 5295 5295 5295 5297 5298 5300 5302 5304 5306 5307